| time (UTC) | temp C | wind direction | speed KPH | gust KPH | rain 1hr cm | rain 24hr cm | rain mn cm | humidity % | barometer mb |
| 20260507180053 | 14 | 133 | 3.2 | 19.3 | 0.00 | 0.00 | 0.00 | 45 | 1016.9 |
| 20260507174555 | 14 | 170 | 3.2 | 24.1 | 0.00 | 0.00 | 0.00 | 47 | 1017.0 |
| 20260507173050 | 13 | 128 | 8.0 | 22.5 | 0.00 | 0.00 | 0.00 | 45 | 1017.2 |
| 20260507171555 | 13 | 111 | 4.8 | 14.5 | 0.00 | 0.00 | 0.00 | 46 | 1017.5 |
| 20260507170054 | 13 | 155 | 8.0 | 19.3 | 0.00 | 0.00 | 0.00 | 44 | 1017.6 |
| 20260507164552 | 13 | 136 | 11.3 | 25.7 | 0.00 | 0.00 | 0.00 | 46 | 1017.7 |
| 20260507163054 | 13 | 98 | 8.0 | 16.1 | 0.00 | 0.00 | 0.00 | 49 | 1017.9 |
| 20260507161553 | 12 | 122 | 8.0 | 17.7 | 0.00 | 0.00 | 0.00 | 49 | 1017.9 |
| 20260507160056 | 12 | 218 | 8.0 | 17.7 | 0.00 | 0.00 | 0.00 | 48 | 1018.0 |
| 20260507154604 | 12 | 168 | 4.8 | 17.7 | 0.00 | 0.00 | 0.00 | 49 | 1017.8 |
| 20260507153059 | 12 | 145 | 4.8 | 14.5 | 0.00 | 0.00 | 0.00 | 49 | 1017.8 |
| 20260507151559 | 12 | 0 | 6.4 | 22.5 | 0.00 | 0.00 | 0.00 | 51 | 1017.7 |
| 20260507150054 | 11 | 117 | 9.7 | 19.3 | 0.00 | 0.00 | 0.00 | 52 | 1017.7 |
| 20260507144550 | 11 | 113 | 1.6 | 19.3 | 0.00 | 0.00 | 0.00 | 54 | 1017.7 |
| 20260507143055 | 11 | 119 | 6.4 | 17.7 | 0.00 | 0.00 | 0.00 | 53 | 1017.6 |
| 20260507141549 | 11 | 113 | 9.7 | 17.7 | 0.00 | 0.00 | 0.00 | 54 | 1017.7 |
| 20260507140051 | 11 | 129 | 1.6 | 16.1 | 0.00 | 0.00 | 0.00 | 60 | 1017.8 |
| 20260507134555 | 10 | 123 | 3.2 | 16.1 | 0.00 | 0.00 | 0.00 | 62 | 1017.8 |
| 20260507133055 | 10 | 125 | 3.2 | 14.5 | 0.00 | 0.00 | 0.00 | 63 | 1017.7 |
| 20260507131600 | 10 | 139 | 3.2 | 14.5 | 0.00 | 0.00 | 0.00 | 66 | 1017.7 |
| 20260507130105 | 9 | 136 | 6.4 | 14.5 | 0.00 | 0.00 | 0.00 | 68 | 1017.6 |
| 20260507124553 | 8 | 142 | 1.6 | 16.1 | 0.00 | 0.00 | 0.00 | 73 | 1017.8 |
| 20260507123123 | 7 | 0 | 1.6 | 8.0 | 0.00 | 0.00 | 0.00 | 75 | 1018.0 |
| 20260507121605 | 7 | 111 | 1.6 | 9.7 | 0.00 | 0.00 | 0.00 | 79 | 1018.1 |
| 20260507120057 | 7 | 146 | 0.0 | 4.8 | 0.00 | 0.00 | 0.00 | 81 | 1018.2 |
| 20260507114603 | 6 | 148 | 0.0 | 6.4 | 0.00 | 0.00 | 0.00 | 83 | 1018.1 |
| 20260507113052 | 6 | 150 | 0.0 | 4.8 | 0.00 | 0.00 | 0.00 | 86 | 1018.0 |
| 20260507111552 | 6 | 126 | 0.0 | 4.8 | 0.00 | 0.00 | 0.00 | 89 | 1017.6 |
| 20260507104554 | 6 | 126 | 0.0 | 3.2 | 0.00 | 0.00 | 0.00 | 91 | 1017.4 |
| 20260507103054 | 6 | 0 | 0.0 | 3.2 | 0.00 | 0.00 | 0.00 | 91 | 1017.2 |
| 20260507101600 | 6 | 126 | 1.6 | 4.8 | 0.00 | 0.00 | 0.00 | 92 | 1017.1 |
| 20260507100051 | 6 | 0 | 1.6 | 4.8 | 0.00 | 0.00 | 0.00 | 93 | 1017.3 |
| 20260507094556 | 6 | 126 | 0.0 | 3.2 | 0.00 | 0.00 | 0.00 | 93 | 1017.3 |
| 20260507093055 | 6 | 126 | 0.0 | 3.2 | 0.00 | 0.00 | 0.00 | 93 | 1017.2 |
| 20260507091552 | 6 | 126 | 0.0 | 3.2 | 0.00 | 0.00 | 0.00 | 93 | 1017.1 |
| 20260507090056 | 6 | 126 | 0.0 | 3.2 | 0.00 | 0.00 | 0.00 | 93 | 1016.9 |
| 20260507084555 | 6 | 0 | 0.0 | 3.2 | 0.00 | 0.05 | 0.00 | 92 | 1016.9 |
| 20260507083050 | 7 | 126 | 0.0 | 1.6 | 0.00 | 0.05 | 0.00 | 92 | 1016.7 |
| 20260507081554 | 7 | 0 | 0.0 | 4.8 | 0.00 | 0.05 | 0.00 | 92 | 1016.7 |
| 20260507074605 | 7 | 126 | 0.0 | 3.2 | 0.00 | 0.38 | 0.00 | 93 | 1016.7 |
| 20260507073049 | 7 | 126 | 1.6 | 4.8 | 0.00 | 0.38 | 0.00 | 94 | 1016.7 |
| 20260507071553 | 7 | 126 | 0.0 | 3.2 | 0.00 | 0.38 | 0.00 | 94 | 1016.8 |
| 20260507070055 | 7 | 0 | 0.0 | 3.2 | 0.00 | 0.38 | 0.00 | 93 | 1016.7 |
| 20260507064550 | 7 | 126 | 0.0 | 1.6 | 0.00 | 0.53 | 0.00 | 93 | 1016.8 |
| 20260507063054 | 7 | 0 | 0.0 | 1.6 | 0.00 | 0.53 | 0.00 | 92 | 1017.0 |
| 20260507061552 | 7 | 0 | 0.0 | 3.2 | 0.00 | 0.53 | 0.00 | 92 | 1017.0 |
| 20260507060048 | 7 | 0 | 0.0 | 1.6 | 0.00 | 0.53 | 0.00 | 92 | 1016.8 |
| 20260507054638 | 7 | 0 | 0.0 | 1.6 | 0.00 | 0.84 | 0.00 | 92 | 1016.9 |
| 20260507053053 | 7 | 126 | 0.0 | 1.6 | 0.00 | 0.84 | 0.00 | 92 | 1017.1 |
| 20260507051553 | 7 | 0 | 0.0 | 1.6 | 0.00 | 0.84 | 0.00 | 92 | 1017.2 |
| 20260507050056 | 7 | 126 | 0.0 | 3.2 | 0.00 | 0.84 | 0.00 | 91 | 1017.0 |
| 20260507044600 | 7 | 126 | 1.6 | 3.2 | 0.00 | 1.32 | 0.00 | 90 | 1017.3 |
| 20260507043055 | 8 | 0 | 0.0 | 1.6 | 0.00 | 1.32 | 0.00 | 90 | 1017.2 |
| 20260507041603 | 8 | 126 | 0.0 | 3.2 | 0.00 | 1.32 | 0.00 | 89 | 1017.5 |
| 20260507040055 | 8 | 0 | 0.0 | 1.6 | 0.00 | 1.32 | 0.00 | 89 | 1017.4 |
| 20260507034558 | 9 | 0 | 0.0 | 3.2 | 0.00 | 1.32 | 1.32 | 88 | 1017.4 |
| 20260507033100 | 9 | 0 | 0.0 | 3.2 | 0.00 | 1.32 | 1.32 | 88 | 1017.1 |
| 20260507031605 | 10 | 126 | 0.0 | 3.2 | 0.00 | 1.32 | 1.32 | 87 | 1017.1 |
| 20260507030056 | 10 | 0 | 0.0 | 3.2 | 0.00 | 1.32 | 1.32 | 86 | 1017.2 |
| 20260507024552 | 10 | 126 | 0.0 | 3.2 | 0.00 | 1.32 | 1.32 | 85 | 1017.2 |
| 20260507023101 | 11 | 126 | 0.0 | 3.2 | 0.00 | 1.32 | 1.32 | 84 | 1017.1 |
| 20260507021553 | 11 | 0 | 0.0 | 3.2 | 0.00 | 1.32 | 1.32 | 83 | 1016.9 |
| 20260507020056 | 11 | 0 | 0.0 | 3.2 | 0.00 | 1.32 | 1.32 | 83 | 1016.7 |
| 20260507014600 | 11 | 126 | 0.0 | 1.6 | 0.00 | 1.37 | 1.32 | 81 | 1016.6 |
| 20260507013048 | 12 | 126 | 0.0 | 3.2 | 0.00 | 1.37 | 1.32 | 79 | 1016.6 |
| 20260507011554 | 12 | 0 | 0.0 | 3.2 | 0.00 | 1.37 | 1.32 | 76 | 1016.3 |
| 20260507010054 | 12 | 0 | 0.0 | 1.6 | 0.00 | 1.37 | 1.32 | 73 | 1016.2 |
| 20260507004553 | 13 | 0 | 0.0 | 3.2 | 0.00 | 1.37 | 1.32 | 71 | 1016.1 |
| 20260507003052 | 13 | 0 | 0.0 | 1.6 | 0.00 | 1.37 | 1.32 | 70 | 1016.0 |
| 20260507001548 | 13 | 0 | 0.0 | 4.8 | 0.00 | 1.37 | 1.32 | 69 | 1015.8 |
| 20260507000050 | 14 | 128 | 0.0 | 4.8 | 0.00 | 1.37 | 1.32 | 68 | 1015.7 |
| 20260506234554 | 14 | 128 | 1.6 | 4.8 | 0.00 | 1.52 | 1.32 | 66 | 1015.6 |
| 20260506233107 | 14 | 152 | 1.6 | 11.3 | 0.00 | 1.52 | 1.32 | 64 | 1015.5 |
| 20260506231550 | 15 | 150 | 3.2 | 8.0 | 0.00 | 1.52 | 1.32 | 62 | 1015.2 |
| 20260506230056 | 15 | 128 | 3.2 | 9.7 | 0.00 | 1.52 | 1.32 | 62 | 1015.0 |
| 20260506224554 | 15 | 138 | 4.8 | 11.3 | 0.00 | 1.52 | 1.32 | 60 | 1014.9 |
| 20260506223052 | 15 | 128 | 4.8 | 12.9 | 0.00 | 1.52 | 1.32 | 61 | 1015.0 |
| 20260506221552 | 15 | 127 | 3.2 | 11.3 | 0.00 | 1.52 | 1.32 | 60 | 1014.7 |
| 20260506220056 | 15 | 142 | 3.2 | 8.0 | 0.00 | 1.52 | 1.32 | 60 | 1015.1 |
| 20260506214553 | 16 | 124 | 6.4 | 11.3 | 0.00 | 1.65 | 1.32 | 56 | 1015.4 |
| 20260506213111 | 16 | 131 | 1.6 | 9.7 | 0.00 | 1.65 | 1.32 | 57 | 1015.3 |
| 20260506211548 | 16 | 134 | 4.8 | 12.9 | 0.00 | 1.65 | 1.32 | 58 | 1015.0 |
| 20260506210056 | 16 | 129 | 3.2 | 12.9 | 0.00 | 1.65 | 1.32 | 59 | 1014.7 |
| 20260506204556 | 16 | 141 | 1.6 | 11.3 | 0.00 | 1.80 | 1.32 | 60 | 1014.6 |
| 20260506203052 | 16 | 144 | 3.2 | 8.0 | 0.00 | 1.80 | 1.32 | 60 | 1014.8 |
| 20260506201552 | 16 | 190 | 3.2 | 14.5 | 0.00 | 1.80 | 1.32 | 57 | 1015.2 |
| 20260506200051 | 16 | 29 | 3.2 | 8.0 | 0.00 | 1.80 | 1.32 | 57 | 1015.1 |
| 20260506194623 | 16 | 124 | 1.6 | 14.5 | 0.00 | 1.80 | 1.32 | 57 | 1015.1 |
| 20260506193104 | 16 | 138 | 1.6 | 12.9 | 0.00 | 1.80 | 1.32 | 55 | 1015.3 |
| 20260506191556 | 15 | 166 | 6.4 | 17.7 | 0.00 | 1.80 | 1.32 | 60 | 1015.3 |
| 20260506190057 | 15 | 132 | 3.2 | 16.1 | 0.00 | 1.80 | 1.32 | 58 | 1015.1 |
| 20260506184557 | 15 | 108 | 4.8 | 16.1 | 0.00 | 1.80 | 1.32 | 59 | 1015.0 |
| 20260506183055 | 15 | 118 | 8.0 | 22.5 | 0.00 | 1.80 | 1.32 | 59 | 1014.6 |
| 20260506181555 | 14 | 157 | 9.7 | 20.9 | 0.00 | 1.80 | 1.32 | 59 | 1014.6 |